| time (UTC) | temp F | wind direction | speed MPH | gust MPH | rain 1hr in | rain 24hr in | rain mn in | humidity % | barometer mb |
| 20260502163047 | 71 | 0.0 | 0.0 | 0.00 | 0.00 | 0.00 | 45 | 1019.3 | |
| 20260502161551 | 70 | 0.0 | 0.0 | 0.00 | 0.00 | 0.00 | 45 | 1019.1 | |
| 20260502151545 | 68 | 0.0 | 0.0 | 0.00 | 0.00 | 0.00 | 55 | 1019.1 | |
| 20260502123046 | 53 | 0.0 | 0.0 | 0.00 | 0.00 | 0.00 | 4 | 1016.9 | |
| 20260502121542 | 53 | 0.0 | 0.0 | 0.00 | 0.00 | 0.00 | 4 | 1016.5 | |
| 20260502114601 | 53 | 0.0 | 0.0 | 0.00 | 0.00 | 0.00 | 4 | 1016.1 | |
| 20260502113044 | 53 | 0.0 | 0.0 | 0.00 | 0.00 | 0.00 | 4 | 1016.1 | |
| 20260502111548 | 53 | 0.0 | 0.0 | 0.00 | 0.00 | 0.00 | 3 | 1015.8 | |
| 20260502110043 | 53 | 0.0 | 0.0 | 0.00 | 0.00 | 0.00 | 3 | 1015.5 | |
| 20260502104543 | 54 | 0.0 | 0.0 | 0.00 | 0.00 | 0.00 | 3 | 1015.2 | |
| 20260502103041 | 54 | 0.0 | 0.0 | 0.00 | 0.00 | 0.00 | 3 | 1015.2 | |
| 20260502101558 | 54 | 0.0 | 0.0 | 0.00 | 0.00 | 0.00 | 2 | 1015.2 | |
| 20260502100104 | 54 | 0.0 | 0.0 | 0.00 | 0.00 | 0.00 | 2 | 1015.0 | |
| 20260502070047 | 54 | 0.0 | 0.0 | 0.00 | 0.00 | 0.00 | 3 | 1015.3 | |
| 20260502064611 | 54 | 0.0 | 0.0 | 0.00 | 0.00 | 0.00 | 3 | 1015.4 | |
| 20260502063047 | 54 | 0.0 | 0.0 | 0.00 | 0.00 | 0.00 | 3 | 1015.5 | |
| 20260502061546 | 54 | 0.0 | 0.0 | 0.00 | 0.00 | 0.00 | 3 | 1015.8 | |
| 20260502060047 | 54 | 0.0 | 0.0 | 0.00 | 0.00 | 0.00 | 4 | 1016.0 | |
| 20260502054542 | 54 | 0.0 | 0.0 | 0.00 | 0.00 | 0.00 | 4 | 1016.0 | |
| 20260502053045 | 54 | 0.0 | 0.0 | 0.00 | 0.00 | 0.00 | 4 | 1016.0 | |
| 20260502051541 | 54 | 0.0 | 0.0 | 0.00 | 0.00 | 0.00 | 4 | 1015.9 | |
| 20260502050047 | 54 | 0.0 | 0.0 | 0.00 | 0.00 | 0.00 | 4 | 1016.1 | |
| 20260502044543 | 54 | 0.0 | 0.0 | 0.00 | 0.00 | 0.00 | 4 | 1016.2 | |
| 20260502043111 | 54 | 0.0 | 0.0 | 0.00 | 0.00 | 0.00 | 4 | 1016.5 | |
| 20260502041553 | 54 | 0.0 | 0.0 | 0.00 | 0.00 | 0.00 | 4 | 1016.5 | |
| 20260502040043 | 54 | 0.0 | 0.0 | 0.00 | 0.00 | 0.00 | 4 | 1016.0 | |
| 20260502034546 | 54 | 0.0 | 0.0 | 0.00 | 0.00 | 0.00 | 4 | 1015.8 | |
| 20260502033045 | 54 | 0.0 | 0.0 | 0.00 | 0.00 | 0.00 | 5 | 1015.2 | |
| 20260502031543 | 54 | 0.0 | 0.0 | 0.00 | 0.00 | 0.00 | 5 | 1014.9 | |
| 20260502030048 | 54 | 0.0 | 0.0 | 0.00 | 0.00 | 0.00 | 5 | 1015.0 | |
| 20260502024540 | 54 | 0.0 | 0.0 | 0.00 | 0.00 | 0.00 | 5 | 1015.2 | |
| 20260502023043 | 54 | 0.0 | 0.0 | 0.00 | 0.00 | 0.00 | 5 | 1015.2 | |
| 20260502021545 | 53 | 0.0 | 0.0 | 0.00 | 0.00 | 0.00 | 6 | 1015.2 | |
| 20260502020041 | 53 | 0.0 | 0.0 | 0.00 | 0.00 | 0.00 | 6 | 1015.0 | |
| 20260502014542 | 53 | 0.0 | 0.0 | 0.00 | 0.00 | 0.00 | 6 | 1015.1 | |
| 20260502013049 | 53 | 0.0 | 0.0 | 0.00 | 0.00 | 0.00 | 7 | 1014.7 | |
| 20260502011547 | 53 | 0.0 | 0.0 | 0.00 | 0.00 | 0.00 | 7 | 1015.0 | |
| 20260502010042 | 53 | 0.0 | 0.0 | 0.00 | 0.00 | 0.00 | 8 | 1014.9 | |
| 20260502004545 | 53 | 0.0 | 0.0 | 0.00 | 0.00 | 0.00 | 8 | 1014.8 | |
| 20260502003040 | 53 | 0.0 | 0.0 | 0.00 | 0.00 | 0.00 | 8 | 1014.7 | |
| 20260502001538 | 53 | 0.0 | 0.0 | 0.00 | 0.00 | 0.00 | 8 | 1014.5 | |
| 20260502000044 | 53 | 0.0 | 0.0 | 0.00 | 0.00 | 0.00 | 9 | 1014.8 | |
| 20260501234544 | 53 | 0.0 | 0.0 | 0.00 | 0.00 | 0.00 | 10 | 1014.9 | |
| 20260501233041 | 53 | 0.0 | 0.0 | 0.00 | 0.00 | 0.00 | 12 | 1014.3 | |
| 20260501231539 | 53 | 0.0 | 0.0 | 0.00 | 0.00 | 0.00 | 17 | 1013.4 | |
| 20260501230045 | 53 | 0.0 | 0.0 | 0.00 | 0.00 | 0.00 | 21 | 1013.5 | |
| 20260501224545 | 53 | 0.0 | 0.0 | 0.00 | 0.00 | 0.00 | 22 | 1013.1 | |
| 20260501223044 | 53 | 0.0 | 0.0 | 0.00 | 0.00 | 0.00 | 26 | 1013.6 | |
| 20260501221540 | 54 | 0.0 | 0.0 | 0.00 | 0.00 | 0.00 | 24 | 1013.7 | |
| 20260501220046 | 54 | 0.0 | 0.0 | 0.00 | 0.00 | 0.00 | 28 | 1014.0 | |
| 20260501214540 | 55 | 0.0 | 0.0 | 0.00 | 0.00 | 0.00 | 25 | 1014.2 | |
| 20260501213048 | 55 | 0.0 | 0.0 | 0.00 | 0.00 | 0.00 | 34 | 1014.2 | |
| 20260501211551 | 55 | 0.0 | 0.0 | 0.00 | 0.00 | 0.00 | 32 | 1013.6 | |
| 20260501210044 | 56 | 0.0 | 0.0 | 0.00 | 0.00 | 0.00 | 34 | 1013.8 | |
| 20260501204557 | 56 | 0.0 | 0.0 | 0.00 | 0.00 | 0.00 | 35 | 1014.3 | |
| 20260501203038 | 57 | 0.0 | 0.0 | 0.00 | 0.00 | 0.00 | 21 | 1015.0 | |
| 20260501201545 | 57 | 0.0 | 0.0 | 0.00 | 0.00 | 0.00 | 17 | 1015.0 | |
| 20260501200045 | 56 | 0.0 | 0.0 | 0.00 | 0.00 | 0.00 | 22 | 1014.8 | |
| 20260501194548 | 56 | 0.0 | 0.0 | 0.00 | 0.00 | 0.00 | 34 | 1014.9 | |
| 20260501193042 | 57 | 0.0 | 0.0 | 0.00 | 0.00 | 0.00 | 15 | 1015.6 | |
| 20260501191544 | 57 | 0.0 | 0.0 | 0.00 | 0.00 | 0.00 | 16 | 1016.1 | |
| 20260501190045 | 57 | 0.0 | 0.0 | 0.00 | 0.00 | 0.00 | 24 | 1016.3 | |
| 20260501184551 | 57 | 0.0 | 0.0 | 0.00 | 0.00 | 0.00 | 25 | 1016.2 | |
| 20260501183050 | 57 | 0.0 | 0.0 | 0.00 | 0.00 | 0.00 | 29 | 1015.9 | |
| 20260501181542 | 57 | 0.0 | 0.0 | 0.00 | 0.00 | 0.00 | 26 | 1016.0 | |
| 20260501180042 | 57 | 0.0 | 0.0 | 0.00 | 0.00 | 0.00 | 32 | 1016.3 | |
| 20260501174549 | 57 | 0.0 | 0.0 | 0.00 | 0.00 | 0.00 | 34 | 1016.4 | |
| 20260501173049 | 57 | 0.0 | 0.0 | 0.00 | 0.00 | 0.00 | 41 | 1016.4 | |
| 20260501171553 | 57 | 0.0 | 0.0 | 0.00 | 0.00 | 0.00 | 39 | 1016.2 |